Location: *
(45.5667°S, 177.5167°W)
Time: 22:01:40
(UTC+00:00)

Lacrosse 5 rocket - Pass Details

Date: 29 May 2022
Orbit: 457 x 629 km, 57.0° (Epoch: 24 June)

Event Time Altitude Azimuth Distance (km) Brightness Sun altitude
Rises 06:44:37 0° 228° (SW) 2,696 5.4 -25.1°
Reaches altitude 10° 06:47:02 10° 219° (SW) 1,770 4.3 -25.5°
Enters shadow 06:48:36 20° 205° (SSW) 1,224 3.2 -25.8°
